| time (UTC) | temp C | wind direction | speed KPH | gust KPH | rain 1hr cm | rain 24hr cm | rain mn cm | humidity % | barometer mb |
| 20260503203102 | 9 | 328 | 19.3 | 33.8 | 0.00 | 0.48 | 0.00 | 46 | 1004.0 |
| 20260503201541 | 10 | 289 | 19.3 | 32.2 | 0.00 | 0.48 | 0.00 | 43 | 1003.9 |
| 20260503200049 | 10 | 315 | 12.9 | 32.2 | 0.00 | 0.48 | 0.00 | 45 | 1003.9 |
| 20260503194547 | 9 | 355 | 17.7 | 32.2 | 0.00 | 0.71 | 0.00 | 47 | 1004.1 |
| 20260503193045 | 9 | 300 | 16.1 | 33.8 | 0.00 | 0.71 | 0.00 | 46 | 1004.0 |
| 20260503191547 | 10 | 305 | 12.9 | 30.6 | 0.00 | 0.71 | 0.00 | 52 | 1004.2 |
| 20260503190044 | 10 | 310 | 16.1 | 30.6 | 0.00 | 0.71 | 0.00 | 51 | 1004.3 |
| 20260503184540 | 9 | 360 | 19.3 | 32.2 | 0.00 | 0.86 | 0.00 | 52 | 1004.3 |
| 20260503183047 | 9 | 285 | 14.5 | 33.8 | 0.00 | 0.86 | 0.00 | 51 | 1004.3 |
| 20260503181557 | 9 | 332 | 16.1 | 27.4 | 0.00 | 0.86 | 0.00 | 51 | 1004.3 |
| 20260503180053 | 8 | 338 | 14.5 | 25.7 | 0.00 | 0.86 | 0.00 | 54 | 1004.4 |
| 20260503174546 | 8 | 298 | 8.0 | 20.9 | 0.00 | 0.91 | 0.00 | 62 | 1004.4 |
| 20260503173044 | 8 | 355 | 8.0 | 17.7 | 0.00 | 0.91 | 0.00 | 63 | 1004.5 |
| 20260503171540 | 7 | 314 | 12.9 | 22.5 | 0.00 | 0.91 | 0.00 | 63 | 1004.5 |
| 20260503081550 | 9 | 5 | 1.6 | 4.8 | 0.00 | 1.12 | 0.00 | 100 | 1007.1 |
| 20260503071546 | 10 | 321 | 3.2 | 14.5 | 0.00 | 1.12 | 0.00 | 100 | 1007.8 |
| 20260503060110 | 10 | 16 | 0.0 | 3.2 | 0.00 | 1.12 | 0.00 | 100 | 1008.3 |
| 20260503054600 | 10 | 98 | 0.0 | 6.4 | 0.00 | 1.12 | 0.00 | 100 | 1008.4 |
| 20260503053046 | 10 | 0 | 0.0 | 4.8 | 0.00 | 1.12 | 0.00 | 100 | 1008.5 |
| 20260503051542 | 10 | 97 | 1.6 | 4.8 | 0.00 | 1.12 | 0.00 | 100 | 1008.8 |
| 20260503050040 | 10 | 10 | 1.6 | 6.4 | 0.00 | 1.12 | 0.00 | 100 | 1009.1 |
| 20260503044549 | 10 | 341 | 4.8 | 9.7 | 0.00 | 1.12 | 0.00 | 100 | 1009.3 |
| 20260503043049 | 10 | 321 | 4.8 | 8.0 | 0.00 | 1.12 | 0.00 | 100 | 1009.5 |
| 20260503041543 | 10 | 284 | 4.8 | 6.4 | 0.00 | 1.12 | 0.00 | 100 | 1009.9 |
| 20260503040044 | 10 | 331 | 6.4 | 11.3 | 0.00 | 1.12 | 0.00 | 100 | 1009.8 |
| 20260503034541 | 10 | 296 | 1.6 | 4.8 | 0.00 | 1.12 | 1.12 | 100 | 1009.8 |
| 20260503033048 | 10 | 74 | 0.0 | 6.4 | 0.00 | 1.12 | 1.12 | 100 | 1009.6 |
| 20260503031547 | 10 | 5 | 1.6 | 6.4 | 0.00 | 1.12 | 1.12 | 100 | 1009.3 |
| 20260503030048 | 10 | 355 | 1.6 | 6.4 | 0.00 | 1.12 | 1.12 | 100 | 1009.8 |
| 20260503024547 | 10 | 41 | 0.0 | 4.8 | 0.03 | 1.12 | 1.12 | 100 | 1009.8 |
| 20260503023040 | 10 | 0 | 0.0 | 4.8 | 0.03 | 1.12 | 1.12 | 100 | 1009.8 |
| 20260503021542 | 10 | 325 | 1.6 | 6.4 | 0.03 | 1.12 | 1.12 | 100 | 1009.8 |
| 20260503020048 | 10 | 5 | 0.0 | 4.8 | 0.05 | 1.12 | 1.12 | 100 | 1010.4 |
| 20260503014547 | 10 | 0 | 0.0 | 3.2 | 0.05 | 1.09 | 1.09 | 100 | 1010.6 |
| 20260503013045 | 10 | 0 | 0.0 | 4.8 | 0.08 | 1.09 | 1.09 | 100 | 1010.6 |
| 20260503011546 | 10 | 348 | 0.0 | 3.2 | 0.08 | 1.09 | 1.09 | 100 | 1010.6 |
| 20260503010041 | 10 | 337 | 1.6 | 4.8 | 0.10 | 1.07 | 1.07 | 100 | 1010.5 |
| 20260503004541 | 10 | 338 | 0.0 | 3.2 | 0.08 | 1.04 | 1.04 | 100 | 1010.5 |
| 20260503003046 | 10 | 30 | 0.0 | 6.4 | 0.08 | 1.02 | 1.02 | 100 | 1010.3 |
| 20260503001548 | 10 | 11 | 0.0 | 4.8 | 0.08 | 0.99 | 0.99 | 100 | 1010.2 |
| 20260503000049 | 10 | 28 | 0.0 | 6.4 | 0.08 | 0.97 | 0.97 | 100 | 1010.0 |
| 20260502234554 | 10 | 0 | 1.6 | 4.8 | 0.08 | 0.97 | 0.97 | 100 | 1010.1 |
| 20260502233044 | 10 | 36 | 0.0 | 4.8 | 0.05 | 0.94 | 0.94 | 100 | 1010.2 |
| 20260502231600 | 10 | 18 | 1.6 | 4.8 | 0.03 | 0.91 | 0.91 | 100 | 1010.0 |
| 20260502230047 | 10 | 16 | 1.6 | 6.4 | 0.03 | 0.89 | 0.89 | 100 | 1010.1 |
| 20260502224546 | 10 | 117 | 0.0 | 8.0 | 0.05 | 0.89 | 0.89 | 100 | 1009.8 |
| 20260502223047 | 10 | 0 | 1.6 | 6.4 | 0.05 | 0.89 | 0.89 | 100 | 1009.7 |
| 20260502221546 | 10 | 74 | 1.6 | 4.8 | 0.08 | 0.89 | 0.89 | 100 | 1009.8 |
| 20260502220043 | 10 | 56 | 1.6 | 4.8 | 0.05 | 0.86 | 0.86 | 100 | 1009.9 |
| 20260502214548 | 10 | 0 | 1.6 | 9.7 | 0.05 | 0.84 | 0.84 | 100 | 1010.0 |
| 20260502213053 | 10 | 0 | 0.0 | 4.8 | 0.05 | 0.84 | 0.84 | 99 | 1010.1 |
| 20260502211546 | 10 | 17 | 1.6 | 6.4 | 0.08 | 0.81 | 0.81 | 99 | 1010.1 |
| 20260502210044 | 10 | 32 | 1.6 | 4.8 | 0.18 | 0.81 | 0.81 | 98 | 1010.2 |
| 20260502204617 | 10 | 34 | 0.0 | 4.8 | 0.25 | 0.79 | 0.79 | 98 | 1010.4 |